TKJ4181 LTCS-LTAC

Flight info

Callsign TKJ4181
Flight time 0h 55m
Altitude 36000
Route BADEM UW103 ERH UW73 GEM UG8 GOBIT
Aircraft A21N/M-SDE3FGHIRWY/LB1

Departure

Time 2026-05-05 13:42
Airport Şanlıurfa GAP Airport (LTCS)

Arrival

Time 2026-05-05 14:37
Airport Esenboğa International Airport (LTAC)
Time Latitude Longitude Altitude Speed Heading
2026-05-05 13:22 37.44601 38.90407 2677 ft 0 kts 131°
2026-05-05 13:23 37.44600 38.90407 2677 ft 0 kts 131°
2026-05-05 13:31 37.44601 38.90407 2684 ft 0 kts 131°
2026-05-05 13:31 37.44607 38.90398 2684 ft 3 kts 131°
2026-05-05 13:32 37.44625 38.90373 2684 ft 3 kts 131°
2026-05-05 13:32 37.44642 38.90347 2683 ft 3 kts 121°
2026-05-05 13:32 37.44643 38.90319 2684 ft 3 kts 67°
2026-05-05 13:32 37.44635 38.90305 2684 ft 0 kts 41°
2026-05-05 13:35 37.44641 38.90312 2684 ft 1 kts 41°
2026-05-05 13:35 37.44657 38.90325 2684 ft 3 kts 26°
2026-05-05 13:35 37.44682 38.90334 2685 ft 4 kts
2026-05-05 13:35 37.44720 38.90323 2685 ft 7 kts 332°
2026-05-05 13:36 37.44763 38.90278 2687 ft 8 kts 313°
2026-05-05 13:36 37.44805 38.90220 2689 ft 9 kts 311°
2026-05-05 13:36 37.44845 38.90162 2693 ft 7 kts 311°
2026-05-05 13:36 37.44879 38.90115 2697 ft 6 kts 312°
2026-05-05 13:37 37.44904 38.90080 2699 ft 5 kts 312°
2026-05-05 13:37 37.44928 38.90053 2701 ft 4 kts 330°
2026-05-05 13:37 37.44958 38.90034 2702 ft 3 kts 358°
2026-05-05 13:37 37.44997 38.90054 2703 ft 7 kts 36°
2026-05-05 13:38 37.45047 38.90109 2703 ft 11 kts 43°
2026-05-05 13:38 37.45115 38.90187 2704 ft 14 kts 42°
2026-05-05 13:38 37.45196 38.90279 2705 ft 16 kts 42°
2026-05-05 13:38 37.45288 38.90383 2707 ft 18 kts 42°
2026-05-05 13:39 37.45389 38.90496 2708 ft 19 kts 41°
2026-05-05 13:39 37.45497 38.90617 2711 ft 20 kts 42°
2026-05-05 13:39 37.45609 38.90743 2713 ft 22 kts 41°
2026-05-05 13:39 37.45720 38.90870 2714 ft 20 kts 42°
2026-05-05 13:40 37.45828 38.90992 2714 ft 19 kts 41°
2026-05-05 13:40 37.45931 38.91106 2713 ft 19 kts 41°
2026-05-05 13:40 37.46032 38.91221 2713 ft 18 kts 46°
2026-05-05 13:40 37.46086 38.91350 2718 ft 9 kts 33°
2026-05-05 13:41 37.46092 38.91295 2714 ft 10 kts 237°
2026-05-05 13:41 37.45989 38.91170 2713 ft 46 kts 221°
2026-05-05 13:41 37.45567 38.90693 2712 ft 115 kts 221°
2026-05-05 13:41 37.44802 38.89809 2747 ft 166 kts 223°
2026-05-05 13:42 37.43957 38.88831 3446 ft 160 kts 223°
2026-05-05 13:42 37.43193 38.87838 4190 ft 156 kts 239°
2026-05-05 13:42 37.43005 38.86483 4660 ft 168 kts 280°
2026-05-05 13:42 37.43733 38.85235 4978 ft 187 kts 324°
2026-05-05 13:43 37.44905 38.84306 5296 ft 204 kts 319°
2026-05-05 13:43 37.45992 38.83012 5668 ft 220 kts 312°
2026-05-05 13:43 37.47138 38.81528 6004 ft 242 kts 313°
2026-05-05 13:43 37.48397 38.79957 6447 ft 260 kts 314°
2026-05-05 13:44 37.49784 38.78297 6899 ft 278 kts 315°
2026-05-05 13:44 37.51241 38.76595 7540 ft 287 kts 316°
2026-05-05 13:44 37.52762 38.74841 8348 ft 290 kts 316°
2026-05-05 13:44 37.54330 38.73041 9152 ft 293 kts 315°
2026-05-05 13:45 37.55881 38.71258 9897 ft 297 kts 315°
2026-05-05 13:45 37.57476 38.69422 10513 ft 306 kts 316°
2026-05-05 13:45 37.59128 38.67500 10883 ft 323 kts 314°
2026-05-05 13:45 37.60712 38.65421 11424 ft 331 kts 309°
2026-05-05 13:46 37.62167 38.63163 12152 ft 333 kts 305°
2026-05-05 13:46 37.63556 38.60833 12865 ft 336 kts 305°
2026-05-05 13:46 37.64962 38.58445 13549 ft 340 kts 306°
2026-05-05 13:46 37.66436 38.56123 14206 ft 344 kts 308°
2026-05-05 13:47 37.67953 38.53812 14864 ft 347 kts 308°
2026-05-05 13:47 37.69511 38.51449 15498 ft 351 kts 308°
2026-05-05 13:47 37.71077 38.49084 16105 ft 355 kts 310°
2026-05-05 13:47 37.72886 38.46952 16710 ft 361 kts 322°
2026-05-05 13:48 37.75073 38.45319 17319 ft 365 kts 335°
2026-05-05 13:48 37.77407 38.44069 17908 ft 369 kts 338°
2026-05-05 13:48 37.79821 38.42857 18477 ft 373 kts 338°
2026-05-05 13:48 37.82230 38.41642 19040 ft 376 kts 338°
2026-05-05 13:49 37.84657 38.40398 19563 ft 381 kts 337°
2026-05-05 13:49 37.87150 38.39107 20069 ft 386 kts 337°
2026-05-05 13:49 37.89644 38.37883 20595 ft 390 kts 339°
2026-05-05 13:49 37.92211 38.36677 21149 ft 393 kts 339°
2026-05-05 13:50 37.94764 38.35489 21682 ft 396 kts 339°
2026-05-05 13:50 37.97368 38.34275 22193 ft 399 kts 338°
2026-05-05 13:50 37.99968 38.33061 22691 ft 403 kts 338°
2026-05-05 13:50 38.02623 38.31820 23174 ft 406 kts 338°
2026-05-05 13:51 38.05266 38.30584 23656 ft 409 kts 338°
2026-05-05 13:51 38.07966 38.29317 24107 ft 413 kts 338°
2026-05-05 13:51 38.10654 38.28055 24518 ft 416 kts 338°
2026-05-05 13:51 38.13362 38.26783 24972 ft 418 kts 338°
2026-05-05 13:52 38.16109 38.25492 25395 ft 420 kts 338°
2026-05-05 13:52 38.18845 38.24204 25788 ft 423 kts 338°
2026-05-05 13:52 38.22539 38.22463 26283 ft 426 kts 338°
2026-05-05 13:52 38.24402 38.21584 26526 ft 428 kts 338°
2026-05-05 13:53 38.27184 38.20271 26877 ft 430 kts 338°
2026-05-05 13:53 38.29995 38.18943 27221 ft 432 kts 337°
2026-05-05 13:53 38.32814 38.17608 27560 ft 435 kts 337°
2026-05-05 13:53 38.35334 38.16415 27865 ft 437 kts 338°
2026-05-05 13:54 38.38184 38.15064 28202 ft 439 kts 337°
2026-05-05 13:54 38.41038 38.13712 28550 ft 441 kts 337°
2026-05-05 13:54 38.43839 38.12054 28804 ft 440 kts 325°
2026-05-05 13:54 38.46186 38.09598 29089 ft 436 kts 309°
2026-05-05 13:55 38.47946 38.06517 29370 ft 431 kts 295°
2026-05-05 13:55 38.49199 38.03086 29661 ft 429 kts 289°
2026-05-05 13:55 38.50364 37.99595 29883 ft 431 kts 289°
2026-05-05 13:55 38.51540 37.96037 30143 ft 433 kts 289°
2026-05-05 13:56 38.52712 37.92524 30398 ft 434 kts 289°
2026-05-05 13:56 38.53901 37.88988 30622 ft 435 kts 290°
2026-05-05 13:56 38.55094 37.85452 30826 ft 437 kts 290°
2026-05-05 13:56 38.56314 37.81852 31020 ft 438 kts 290°
2026-05-05 13:57 38.57513 37.78312 31214 ft 439 kts 290°
2026-05-05 13:57 38.58724 37.74738 31387 ft 441 kts 290°
2026-05-05 13:57 38.59949 37.71120 31564 ft 441 kts 291°
2026-05-05 13:57 38.61157 37.67550 31749 ft 442 kts 291°
2026-05-05 13:58 38.62368 37.63970 31929 ft 443 kts 291°
2026-05-05 13:58 38.63599 37.60325 32115 ft 443 kts 291°
2026-05-05 13:58 38.64809 37.56741 32335 ft 442 kts 291°
2026-05-05 13:58 38.66014 37.53162 32568 ft 441 kts 291°
2026-05-05 13:59 38.68434 37.45963 32984 ft 440 kts 291°
2026-05-05 13:59 38.69638 37.42370 33161 ft 440 kts 291°
2026-05-05 14:00 38.72037 37.35212 33605 ft 436 kts 291°
2026-05-05 14:00 38.73233 37.31633 33792 ft 437 kts 291°
2026-05-05 14:00 38.74416 37.28086 33955 ft 438 kts 291°
2026-05-05 14:00 38.75603 37.24524 34139 ft 438 kts 291°
2026-05-05 14:01 38.76802 37.20917 34296 ft 438 kts 291°
2026-05-05 14:01 38.77989 37.17347 34449 ft 439 kts 291°
2026-05-05 14:01 38.79190 37.13733 34590 ft 440 kts 291°
2026-05-05 14:01 38.80382 37.10156 34739 ft 440 kts 291°
2026-05-05 14:02 38.81579 37.06563 34861 ft 441 kts 291°
2026-05-05 14:02 38.82792 37.02916 34990 ft 442 kts 291°
2026-05-05 14:02 38.83991 36.99306 35116 ft 443 kts 291°
2026-05-05 14:02 38.85185 36.95698 35240 ft 444 kts 291°
2026-05-05 14:03 38.86399 36.92029 35365 ft 444 kts 292°
2026-05-05 14:03 38.87597 36.88400 35479 ft 445 kts 292°
2026-05-05 14:03 38.88796 36.84768 35581 ft 446 kts 292°
2026-05-05 14:03 38.90012 36.81076 35692 ft 447 kts 292°
2026-05-05 14:04 38.91216 36.77417 35806 ft 447 kts 292°
2026-05-05 14:04 38.92414 36.73769 35869 ft 448 kts 292°
2026-05-05 14:04 38.94833 36.66391 35889 ft 449 kts 292°
2026-05-05 14:05 38.97250 36.59002 35902 ft 448 kts 292°
2026-05-05 14:05 38.99641 36.51668 35911 ft 447 kts 292°
2026-05-05 14:06 39.02042 36.44289 35913 ft 447 kts 292°
2026-05-05 14:06 39.04430 36.36926 35914 ft 447 kts 292°
2026-05-05 14:07 39.06804 36.29586 35913 ft 447 kts 292°
2026-05-05 14:07 39.09187 36.22203 35915 ft 446 kts 292°
2026-05-05 14:08 39.11564 36.14814 35917 ft 446 kts 292°
2026-05-05 14:08 39.13919 36.07464 35929 ft 447 kts 292°
2026-05-05 14:09 39.16259 36.00059 35939 ft 446 kts 291°
2026-05-05 14:09 39.18473 35.92600 35940 ft 446 kts 290°
2026-05-05 14:10 39.20657 35.85185 35925 ft 446 kts 291°
2026-05-05 14:10 39.22859 35.77712 35904 ft 445 kts 291°
2026-05-05 14:11 39.25038 35.70307 35895 ft 444 kts 291°
2026-05-05 14:11 39.27208 35.62912 35912 ft 443 kts 291°
2026-05-05 14:12 39.29388 35.55471 35929 ft 444 kts 291°
2026-05-05 14:12 39.31552 35.48056 35949 ft 443 kts 291°
2026-05-05 14:13 39.33720 35.40610 35955 ft 443 kts 291°
2026-05-05 14:13 39.35883 35.33158 35962 ft 443 kts 291°
2026-05-05 14:14 39.38033 35.25725 35961 ft 443 kts 291°
2026-05-05 14:14 39.40178 35.18293 35964 ft 442 kts 291°
2026-05-05 14:15 39.42366 35.10879 35966 ft 442 kts 291°
2026-05-05 14:15 39.44551 35.03495 35968 ft 442 kts 291°
2026-05-05 14:16 39.46725 34.96114 35968 ft 441 kts 292°
2026-05-05 14:16 39.48897 34.88707 35957 ft 441 kts 292°
2026-05-05 14:17 39.51071 34.81274 35969 ft 440 kts 292°
2026-05-05 14:17 39.53216 34.73920 35965 ft 440 kts 292°
2026-05-05 14:18 39.55369 34.66516 35964 ft 440 kts 292°
2026-05-05 14:18 39.57521 34.59094 35967 ft 439 kts 292°
2026-05-05 14:19 39.59652 34.51725 35963 ft 438 kts 292°
2026-05-05 14:19 39.61785 34.44322 35959 ft 438 kts 292°
2026-05-05 14:20 39.63902 34.36959 35961 ft 437 kts 292°
2026-05-05 14:20 39.66023 34.29558 35956 ft 437 kts 292°
2026-05-05 14:21 39.68124 34.22213 35953 ft 437 kts 292°
2026-05-05 14:21 39.70219 34.14865 35950 ft 436 kts 292°
2026-05-05 14:22 39.72322 34.07463 35953 ft 436 kts 292°
2026-05-05 14:22 39.74407 34.00100 35940 ft 435 kts 292°
2026-05-05 14:23 39.76479 33.92764 35939 ft 434 kts 292°
2026-05-05 14:23 39.78550 33.85401 35949 ft 435 kts 292°
2026-05-05 14:24 39.80604 33.78012 35307 ft 438 kts 292°
2026-05-05 14:24 39.81386 33.74210 34694 ft 442 kts 282°
2026-05-05 14:24 39.81519 33.70175 34086 ft 448 kts 270°
2026-05-05 14:25 39.81139 33.66180 33444 ft 452 kts 269°
2026-05-05 14:25 39.81281 33.62165 32630 ft 447 kts 286°
2026-05-05 14:25 39.82041 33.58291 31803 ft 447 kts 290°
2026-05-05 14:25 39.82756 33.54944 30953 ft 441 kts 291°
2026-05-05 14:26 39.83564 33.51031 29866 ft 438 kts 290°
2026-05-05 14:26 39.84329 33.47115 28731 ft 434 kts 289°
2026-05-05 14:26 39.85042 33.43275 27613 ft 431 kts 289°
2026-05-05 14:26 39.85728 33.39466 26494 ft 427 kts 288°
2026-05-05 14:27 39.86394 33.35686 25375 ft 423 kts 288°
2026-05-05 14:27 39.87054 33.31878 24220 ft 420 kts 287°
2026-05-05 14:27 39.87553 33.28130 23091 ft 422 kts 278°
2026-05-05 14:27 39.87380 33.24268 21971 ft 426 kts 265°
2026-05-05 14:28 39.86791 33.20439 20865 ft 424 kts 261°
2026-05-05 14:28 39.86149 33.16701 19771 ft 421 kts 261°
2026-05-05 14:28 39.85511 33.12964 18672 ft 417 kts 261°
2026-05-05 14:28 39.84897 33.09266 17779 ft 403 kts 261°
2026-05-05 14:29 39.84310 33.05676 17165 ft 384 kts 261°
2026-05-05 14:29 39.83768 33.02331 16569 ft 368 kts 261°
2026-05-05 14:29 39.83340 32.99110 15980 ft 353 kts 265°
2026-05-05 14:29 39.83035 32.95982 15383 ft 340 kts 266°
2026-05-05 14:30 39.82767 32.92985 14801 ft 330 kts 266°
2026-05-05 14:30 39.82515 32.90035 14210 ft 320 kts 266°
2026-05-05 14:30 39.82278 32.87162 13624 ft 315 kts 266°
2026-05-05 14:30 39.82053 32.84331 13047 ft 311 kts 266°
2026-05-05 14:31 39.81838 32.81539 12656 ft 303 kts 266°
2026-05-05 14:31 39.81628 32.78809 12325 ft 295 kts 266°
2026-05-05 14:31 39.81599 32.76146 11967 ft 286 kts 284°
2026-05-05 14:31 39.82501 32.73896 11630 ft 274 kts 316°
2026-05-05 14:32 39.84036 32.72528 11312 ft 268 kts 338°
2026-05-05 14:32 39.85823 32.71999 10879 ft 268 kts 359°
2026-05-05 14:32 39.87689 32.72392 10410 ft 270 kts 21°
2026-05-05 14:32 39.89260 32.73642 9953 ft 271 kts 43°
2026-05-05 14:33 39.90520 32.75464 9449 ft 273 kts 49°
2026-05-05 14:33 39.91709 32.77319 8942 ft 276 kts 49°
2026-05-05 14:33 39.92932 32.79209 8420 ft 276 kts 48°
2026-05-05 14:33 39.94161 32.81079 7890 ft 274 kts 48°
2026-05-05 14:34 39.95447 32.82894 7342 ft 273 kts 42°
2026-05-05 14:34 39.96883 32.84523 6791 ft 272 kts 35°
2026-05-05 14:34 39.98392 32.85957 6244 ft 268 kts 33°
2026-05-05 14:34 39.99902 32.87348 5692 ft 264 kts 33°
2026-05-05 14:35 40.01385 32.88744 5198 ft 253 kts 34°
2026-05-05 14:35 40.02741 32.90042 5000 ft 229 kts 34°
2026-05-05 14:35 40.03967 32.91219 4872 ft 215 kts 34°
2026-05-05 14:35 40.05204 32.92401 4600 ft 215 kts 34°
2026-05-05 14:36 40.06397 32.93540 4306 ft 208 kts 34°
2026-05-05 14:36 40.07551 32.94643 4028 ft 198 kts 34°
2026-05-05 14:36 40.08641 32.95684 3789 ft 185 kts 34°
2026-05-05 14:36 40.09659 32.96657 3618 ft 172 kts 33°
2026-05-05 14:37 40.10603 32.97566 3356 ft 163 kts 34°
2026-05-05 14:37 40.11514 32.98420 3140 ft 155 kts 35°
2026-05-05 14:37 40.12291 32.99162 3131 ft 105 kts 37°
2026-05-05 14:37 40.12573 32.99449 3134 ft 27 kts 58°
2026-05-05 14:38 40.12593 32.99663 3140 ft 21 kts 96°
2026-05-05 14:38 40.12548 32.99701 3141 ft 4 kts 210°
2026-05-05 14:38 40.12515 32.99675 3141 ft 6 kts 210°
2026-05-05 14:38 40.12472 32.99639 3140 ft 8 kts 214°
2026-05-05 14:39 40.12420 32.99591 3139 ft 10 kts 217°
2026-05-05 14:39 40.12360 32.99531 3138 ft 11 kts 216°
2026-05-05 14:39 40.12293 32.99466 3138 ft 12 kts 217°
2026-05-05 14:39 40.12219 32.99394 3136 ft 13 kts 216°
2026-05-05 14:40 40.12137 32.99317 3135 ft 14 kts 216°
2026-05-05 14:40 40.12050 32.99234 3134 ft 15 kts 217°
2026-05-05 14:40 40.11960 32.99147 3133 ft 16 kts 216°
2026-05-05 14:40 40.11868 32.99062 3131 ft 16 kts 214°
2026-05-05 14:41 40.11767 32.99079 3132 ft 14 kts 155°
2026-05-05 14:41 40.11686 32.99126 3133 ft 9 kts 152°
2026-05-05 14:41 40.11644 32.99155 3133 ft 2 kts 151°
2026-05-05 14:41 40.11636 32.99161 3133 ft 0 kts 151°
2026-05-05 14:42 40.11632 32.99164 3133 ft 0 kts 150°
2026-05-05 14:42 40.11631 32.99165 3133 ft 0 kts 150°